Sélectionnez une autre période ( cacher cette zone )

Les unités Période Gamme personnalisée Directement à
métriques impériales les deux
par jour par semaine mensuel annuel
utiliser les deux sélecteurs de date pour une gamme personnalisée
précédente Jour
Avec cette date
par jour Résumé pour Lundi Oct 25 2021
Temps Temp. ( °C ) Pt. de rosée ( °C ) Vent ( km/h ) De Rafale ( km/h ) Pression baro ( hPa ) Humid.( % ) Débit de pluie ( cm ) Solaire ( W/m2 )
Élevé13,6 9,4 8,0 NO ( 37/67 ) 8,0 1023,9 96 - 471
Moyenne7,3 5,7 1,4 calme #26/49 3,4 1023,3 90 - 247 #15/49
Basse4,7 3,9 -   0,0 1022,7 76 -  
par jour Détails du tableau pour Lundi Oct 25 2021
Temps Temp. ( °C ) Pt. de rosée ( °C ) Vent ( km/h ) De Rafale ( km/h ) Pression baro ( hPa ) Humid.( % ) Débit de pluie ( cm ) Solaire ( W/m2 )
00:00 7,6 5,6 2,0 NO 5,0 1023,9 89 - -
00:15 7,8 6,1   calme 3,0 1023,7 89 - -
00:30 8,3 6,1   calme 3,0 1023,7 88 - -
00:45 8,3 6,1   calme 2,0 1023,6 87 - -
01:00 7,6 5,6   calme 3,0 1023,6 89 - -
01:15 7,2 5,6   calme 3,0 1023,6 89 - -
01:30 6,9 5,6 2,0 NO 3,0 1023,6 91 - -
01:45 6,9 5,6 2,0 NO 5,0 1023,6 91 - -
02:00 7,1 5,0   calme 2,0 1023,6 89 - -
02:15 6,7 5,0   calme   1023,6 90 - -
02:30 6,4 5,0   calme 3,0 1023,5 91 - -
02:45 6,4 5,0 3,0 NO 3,0 1023,7 92 - -
03:00 6,4 5,0 2,0 NO 5,0 1023,6 92 - -
03:15 6,5 5,0 2,0 NO 3,0 1023,6 92 - -
03:30 6,2 5,0   calme 5,0 1023,6 92 - -
03:45 6,3 5,0   calme 3,0 1023,4 92 - -
04:00 6,3 5,0 2,0 NO 2,0 1023,4 93 - -
04:15 6,3 5,0   calme 2,0 1023,3 91 - -
04:30 5,9 4,4   calme 3,0 1023,3 92 - -
04:45 5,9 4,4   calme 2,0 1023,2 93 - -
05:00 5,9 5,0 2,0 NO 3,0 1023,1 94 - -
05:15 6,1 5,0 3,0 NO 3,0 1023,0 93 - -
05:30 6,1 5,0 2,0 NO 3,0 1023,1 93 - -
05:45 5,9 5,0 5,0 NO 5,0 1023,0 93 - -
06:00 6,2 5,0   calme 3,0 1023,0 94 - -
06:15 5,9 5,0   calme 3,0 1022,9 93 - -
06:30 5,6 4,4   calme   1022,9 93 - -
06:45 5,6 4,4   calme 3,0 1023,0 93 - -
07:00 5,2 3,9   calme 2,0 1023,0 93 - -
07:15 5,0 3,9   calme 3,0 1022,9 93 - -
07:30 4,8 3,9   calme 2,0 1022,8 94 - -
07:45 4,7 3,9 3,0 NO 5,0 1022,7 94 - -
08:00 4,8 3,9   calme 3,0 1022,8 94 - -
08:15 4,9 3,9 5,0 NO 5,0 1022,8 95 - -
08:30 4,9 3,9 2,0 NO 3,0 1023,0 94 - 14
08:45 5,3 4,4   calme 5,0 1023,0 95 - 25
09:00 6,4 5,6   calme 2,0 1022,9 96 - 62
09:15 7,8 7,2   calme 5,0 1023,0 96 - 95
09:30 8,7 7,2 2,0 SE 5,0 1023,1 92 - 134
09:45 9,4 7,2   calme 3,0 1023,3 88 - 171
10:00 9,7 7,2 2,0 SE 3,0 1023,3 87 - 213
10:15 10,5 8,3 5,0 SE 6,0 1023,3 86 - 257
10:30 10,2 7,8 3,0 SSE 8,0 1023,5 86 - 292
10:45 10,4 7,8   calme 3,0 1023,6 85 - 332
11:00 11,1 8,3 2,0 SSE 3,0 1023,5 84 - 367
11:15 11,9 8,9 2,0 ESE 5,0 1023,5 82 - 397
11:30 12,6 8,9 3,0 SE 3,0 1023,4 79 - 425
11:45 13,2 8,9 3,0 SSE 6,0 1023,5 77 - 450
12:00 13,6 9,4 8,0 SSE 6,0 1023,5 76 - 471
par jour Résumé pour Lundi Oct 25 2021
Temps Temp. ( °C ) Pt. de rosée ( °C ) Vent ( km/h ) De Rafale ( km/h ) Pression baro ( hPa ) Humid.( % ) Débit de pluie ( cm ) Solaire ( W/m2 )
Élevé13,6 9,4 8,0 NO ( 37/67 ) 8,0 1023,9 96 - 471
Moyenne7,3 5,7 1,4 calme #26/49 3,4 1023,3 90 - 247 #15/49
Basse4,7 3,9 -   0,0 1022,7 76 -  
par jour Détails du tableau pour Lundi Oct 25 2021
Temps Temp. ( °C ) Pt. de rosée ( °C ) Vent ( km/h ) De Rafale ( km/h ) Pression baro ( hPa ) Humid.( % ) Débit de pluie ( cm ) Solaire ( W/m2 )
00:00 7,6 5,6 2,0 NO 5,0 1023,9 89 - -
00:15 7,8 6,1   calme 3,0 1023,7 89 - -
00:30 8,3 6,1   calme 3,0 1023,7 88 - -
00:45 8,3 6,1   calme 2,0 1023,6 87 - -
01:00 7,6 5,6   calme 3,0 1023,6 89 - -
01:15 7,2 5,6   calme 3,0 1023,6 89 - -
01:30 6,9 5,6 2,0 NO 3,0 1023,6 91 - -
01:45 6,9 5,6 2,0 NO 5,0 1023,6 91 - -
02:00 7,1 5,0   calme 2,0 1023,6 89 - -
02:15 6,7 5,0   calme   1023,6 90 - -
02:30 6,4 5,0   calme 3,0 1023,5 91 - -
02:45 6,4 5,0 3,0 NO 3,0 1023,7 92 - -
03:00 6,4 5,0 2,0 NO 5,0 1023,6 92 - -
03:15 6,5 5,0 2,0 NO 3,0 1023,6 92 - -
03:30 6,2 5,0   calme 5,0 1023,6 92 - -
03:45 6,3 5,0   calme 3,0 1023,4 92 - -
04:00 6,3 5,0 2,0 NO 2,0 1023,4 93 - -
04:15 6,3 5,0   calme 2,0 1023,3 91 - -
04:30 5,9 4,4   calme 3,0 1023,3 92 - -
04:45 5,9 4,4   calme 2,0 1023,2 93 - -
05:00 5,9 5,0 2,0 NO 3,0 1023,1 94 - -
05:15 6,1 5,0 3,0 NO 3,0 1023,0 93 - -
05:30 6,1 5,0 2,0 NO 3,0 1023,1 93 - -
05:45 5,9 5,0 5,0 NO 5,0 1023,0 93 - -
06:00 6,2 5,0   calme 3,0 1023,0 94 - -
06:15 5,9 5,0   calme 3,0 1022,9 93 - -
06:30 5,6 4,4   calme   1022,9 93 - -
06:45 5,6 4,4   calme 3,0 1023,0 93 - -
07:00 5,2 3,9   calme 2,0 1023,0 93 - -
07:15 5,0 3,9   calme 3,0 1022,9 93 - -
07:30 4,8 3,9   calme 2,0 1022,8 94 - -
07:45 4,7 3,9 3,0 NO 5,0 1022,7 94 - -
08:00 4,8 3,9   calme 3,0 1022,8 94 - -
08:15 4,9 3,9 5,0 NO 5,0 1022,8 95 - -
08:30 4,9 3,9 2,0 NO 3,0 1023,0 94 - 14
08:45 5,3 4,4   calme 5,0 1023,0 95 - 25
09:00 6,4 5,6   calme 2,0 1022,9 96 - 62
09:15 7,8 7,2   calme 5,0 1023,0 96 - 95
09:30 8,7 7,2 2,0 SE 5,0 1023,1 92 - 134
09:45 9,4 7,2   calme 3,0 1023,3 88 - 171
10:00 9,7 7,2 2,0 SE 3,0 1023,3 87 - 213
10:15 10,5 8,3 5,0 SE 6,0 1023,3 86 - 257
10:30 10,2 7,8 3,0 SSE 8,0 1023,5 86 - 292
10:45 10,4 7,8   calme 3,0 1023,6 85 - 332
11:00 11,1 8,3 2,0 SSE 3,0 1023,5 84 - 367
11:15 11,9 8,9 2,0 ESE 5,0 1023,5 82 - 397
11:30 12,6 8,9 3,0 SE 3,0 1023,4 79 - 425
11:45 13,2 8,9 3,0 SSE 6,0 1023,5 77 - 450
12:00 13,6 9,4 8,0 SSE 6,0 1023,5 76 - 471

Téléchargez votre copie de cet ensemble de données  à partir de WeatherUnderground

Nos données météo stockées sur Weather Underground. Script développé par Jim McMurry. Réécrit pour l'utilisation du modèle Leuven-Template